Location: Sedan
(39.2354°N, 78.5718°W)
Time: 14:49:14
(UTC+00:00)

Envisat - Pass Details

Date: 11 December 2021
Orbit: 764 x 766 km, 98.2° (Epoch: 19 January)

Event Time Altitude Azimuth Distance (km) Brightness Sun altitude
Rises 11:12:57 0° 359° (N) 3,240 6.0 -13.4°
Reaches altitude 10° 11:15:35 10° 347° (NNW) 2,309 5.2 -12.9°
Maximum altitude 11:19:43 26° 293° (WNW) 1,488 3.9 -12.1°
Drops below altitude 10° 11:23:49 10° 238° (WSW) 2,296 5.1 -11.4°
Sets 11:26:27 0° 226° (SW) 3,217 6.0 -10.9°
